#timestamp,LO_Frequency,Hit,StdDev 
1457650815.7,286047006.7,N
1457650835.5,286047010.0,Y
1457650855.4,286047004.3,P
1457650875.2,286047002.0,N
1457650895.1,286047001.7,N
1457650896.0,286047001.7,N
1457650915.8,286047006.0,Y
1457650935.6,286047003.0,P
1457650955.5,286047001.9,P
1457650975.3,286047005.2,P
1457650995.1,286047001.8,N
1457651015.9,286047001.3,N
1457651035.7,286047007.5,Y
1457651055.5,286047001.6,P
1457651075.4,286047000.5,N
1457651095.2,286047000.6,N
1457651115.0,286046998.4,N
1457651115.9,286046998.4,N
1457651135.8,286047000.1,N
1457651155.6,286047002.5,N
1457651175.4,286047001.6,N
1457651195.2,286047002.1,N
1457651215.1,286047007.2,Y
1457651216.0,286047007.2,P
1457651235.8,286047006.6,N
1457651255.7,286047004.9,N
1457651275.5,286047005.1,N
1457651295.3,286047004.2,N
1457651315.1,286047002.8,N
1457651335.9,286047002.0,N
1457651355.7,286047000.8,N
1457651375.5,286046998.9,N
1457651395.4,286047000.9,N
1457651415.2,286046999.9,N
1457651435.0,286047000.7,N
1457651435.9,286047000.7,N
1457651455.8,286047003.5,N
1457651475.6,286047007.4,Y
1457651495.4,286047004.3,P
1457651515.3,286047002.5,N
1457651535.1,286047000.2,N
1457651536.0,286047000.2,N
1457651555.8,286046998.6,N
1457651575.7,286046997.5,N
1457651595.5,286046997.2,N
1457651615.3,286046998.3,N
1457651635.1,286046997.6,N
1457651655.9,286046995.7,N
1457651675.7,286046997.3,N
1457651695.5,286046993.8,N
1457651715.4,286046992.2,N
1457651735.2,286046992.0,N
1457651755.0,286046991.4,N
1457651755.9,286046991.4,N
1457651775.8,286046992.5,N
1457651795.6,286046993.5,N
1457651815.4,286046995.6,N
1457651835.3,286046994.1,N
1457651855.1,286046994.7,N
1457651856.0,286046994.7,N
1457651875.8,286046993.5,N
1457651895.7,286046996.0,N
1457651915.5,286046994.4,N
1457651935.3,286046995.2,N
1457651955.1,286046993.4,N
1457651975.9,286046995.7,N
1457651995.7,286046993.4,N
1457652015.5,286046992.4,N
1457652035.4,286046990.4,Y
1457652055.2,286046993.4,P
1457652075.0,286046999.2,N
1457652075.9,286046999.2,N
1457652095.8,286047001.0,N
1457652115.6,286046998.8,N
1457652135.4,286047000.4,N
1457652155.3,286046999.8,N
1457652175.1,286047003.8,N
1457652195.8,286047002.8,N
1457652215.7,286047000.4,N
1457652235.5,286047000.5,N
1457652255.3,286047000.0,N
1457652275.2,286046998.3,N
1457652295.9,286046998.2,N
1457652315.7,286046999.4,N
1457652335.6,286046998.6,N
1457652355.4,286047001.0,N
1457652375.2,286046999.7,N
1457652395.0,286047004.4,N
1457652396.0,286047004.4,N
1457652415.8,286047003.7,N
1457652435.6,286047003.1,N
1457652455.4,286047003.6,N
1457652475.3,286047000.0,N
1457652495.1,286047000.2,N
1457652515.8,286047001.3,N
1457652535.7,286047002.5,N
1457652555.5,286047000.9,N
1457652575.3,286046999.8,N
1457652595.2,286047003.2,N
1457652615.9,286047004.3,N
1457652635.7,286047002.6,N
1457652655.6,286047001.9,N
1457652675.4,286047000.1,N
1457652695.2,286047000.1,N
1457652715.1,286047002.1,N
1457652716.0,286047002.1,N
1457652735.8,286047004.2,N
1457652755.6,286047000.2,N
1457652775.4,286047003.7,N
1457652795.3,286047002.7,N
1457652815.1,286047003.8,N
1457652835.8,286047000.4,N
1457652855.7,286046999.9,N
1457652875.5,286046998.6,N
1457652895.3,286046996.4,N
1457652915.2,286046995.5,N
1457652935.9,286046995.9,N
1457652955.7,286046993.1,N
1457652975.6,286046991.6,Y
1457652995.4,286046988.6,P
1457653015.2,286046989.1,N
1457653035.1,286046989.6,N
1457653036.0,286046989.6,N
1457653055.8,286046988.1,N
1457653075.6,286046989.4,N
1457653095.5,286046987.0,Y
1457653115.3,286046997.9,P
1457653135.1,286046997.5,N
1457653155.9,286046997.7,N
1457653175.7,286046997.8,N
1457653195.5,286046995.4,N
1457653215.4,286046997.1,N
1457653235.2,286046998.5,N
1457653255.0,286046999.1,N
1457653255.9,286046999.1,N
1457653275.7,286046998.3,N
1457653295.6,286046996.6,N
1457653315.4,286046994.4,N
1457653335.2,286046996.3,N
1457653355.1,286046995.6,N
1457653356.0,286046995.6,N
1457653375.8,286046992.6,Y
1457653395.6,286046991.9,P
1457653415.5,286046994.6,N
1457653435.3,286046994.6,N
1457653455.1,286046992.5,Y
1457653475.9,286047000.9,P
1457653495.7,286047002.8,N
1457653515.5,286046998.1,N
1457653535.4,286046998.9,N
1457653555.2,286046997.1,N
1457653575.0,286046993.4,N
1457653575.9,286046993.4,N
1457653595.8,286046995.7,N
1457653615.6,286046996.4,N
1457653635.4,286046993.4,N
1457653655.3,286046996.1,N
1457653675.1,286046995.5,N
1457653676.0,286046995.5,N
1457653695.8,286046995.1,N
1457653715.6,286046994.3,N
1457653735.5,286046995.2,N
1457653755.3,286046996.9,N
1457653775.1,286046998.0,N
1457653795.9,286046997.9,N
1457653815.7,286046997.2,N
1457653835.5,286046998.2,N
1457653855.4,286047000.8,N
1457653875.2,286046997.4,N
1457653895.0,286046998.3,N
1457653895.9,286046998.3,N
1457653915.8,286047001.0,N
1457653935.6,286047002.7,N
1457653955.4,286047000.0,N
1457653975.2,286047000.7,N
1457653995.1,286046999.5,N
1457653996.0,286046999.5,N
1457654015.8,286046998.1,N
1457654035.6,286047000.6,N
1457654055.5,286046996.9,N
1457654075.3,286046998.0,N
1457654095.1,286046997.6,N
1457654115.9,286046997.7,N
1457654135.7,286046999.5,N
1457654155.5,286047000.3,N
1457654175.4,286047000.0,N
1457654195.2,286047000.4,N
1457654215.0,286047002.8,N
1457654215.9,286047002.8,N
1457654235.8,286047004.0,N
1457654255.6,286047004.4,N
1457654275.4,286047001.6,N
1457654295.2,286047003.8,N
1457654315.1,286047004.3,N
1457654316.0,286047004.3,N
1457654335.8,286047002.6,N
1457654355.6,286047004.3,N
1457654375.5,286047001.7,N
1457654395.3,286047002.6,N
